Location: Ward Pound Ridge Reservation
(41.2500°N, 73.6000°W)
Time: 09:55:23
(UTC-05:00)

Tiangong 1 - Pass Details

Date: 16 October 2017
Orbit: 275 x 302 km, 42.8° (Epoch: 14 December)

Event Time Altitude Azimuth Distance (km) Brightness Sun altitude
Rises 18:41:53 0° 283° (WNW) 2,100 6.4 -6.4°
Reaches altitude 10° 18:43:58 10° 275° (W) 1,252 5.3 -6.8°
Maximum altitude 18:46:39 41° 204° (SSW) 486 1.9 -7.3°
Drops below altitude 10° 18:49:15 10° 131° (SE) 1,216 3.2 -7.8°
Enters shadow 18:50:02 - 127° (SE) 1,535 3.7 -8.0°
